Погода в Нерюктяйинске 1-ом

Россия / Республика Саха (Якутия)     60°15′27″N   119°40′34″E
темп.,
°C
ветер,
м/с
пор.,
м/с
влажн.,
%
обл.,
%
осадки,
мм/ч
давл.,
гПа
погр.,
м
27 февраля, сб
сб2700:00−24зсз1194100 0.0 102320
03:00−24сз1194100 0.0 102220
06:00−23з1297100 0.0 102330
09:00−22зсз2398100 0.2 1023210
12:00−20зсз4794100 0.6 1023717
15:00−20зсз5990100 1.0 10221011
18:00−20сз41091100 0.3 10241146
21:00−22зсз51189100 0.4 1025931
28 февраля, вс
вс2800:00−23зсз51185100 0.0 1026967
03:00−26з41289100 0.0 1028494
06:00−31з349496 0.0 103090
09:00−32зюз239673 0.0 103264
12:00−24з5108146 0.0 10321318
15:00−23з597873 0.1 10321432
18:00−24з2689100 0.1 1033224
21:00−29зюз229390 0.1 103419
1 марта, пн
пн100:00−32зюз229622 0.0 103419
03:00−33зюз229816 0.0 103419
06:00−33з129945 0.0 103419
09:00−33зюз129867 0.0 103420
12:00−25зюз138767 0.0 1032396
15:00−23з247983 0.0 10301140
18:00−25зюз1289100 0.0 102919
21:00−31з019486 0.0 102919
2 марта, вт
вт200:00−32юв019697 0.0 102819
03:00−34вюв1110092 0.0 102719
06:00−35всв1110078 0.0 102619
09:00−34в1110088 0.0 102519
12:00−28в2293100 0.0 1023263
15:00−25всв2392100 0.0 1021342
18:00−26с1195100 0.0 102121
21:00−27св2497100 0.1 102293
3 марта, ср
ср300:00−31ссв129698 0.0 102119
03:00−32ссв129894 0.0 102220
06:00−34с129970 0.0 102319
09:00−34с129775 0.0 102424
12:00−27с238881 0.0 1024382
15:00−24с248791 0.0 1023672
18:00−28ссз229299 0.0 102428
21:00−33сз229686 0.0 102619